Time,TemperatureF,DewpointF,PressureIn,WindDirection,WindDirectionDegrees,WindSpeedMPH,WindSpeedGustMPH,Humidity,HourlyPrecipIn,Conditions,Clouds,dailyrainin,SoftwareType,DateUTC
2013-03-16 00:02:00,64.5,50.0,29.78,East,94,6.0,9.0,60,0.00,,,0.00,weatherlink.com 1.10,2013-03-16 05:02:00,
2013-03-16 00:17:00,64.2,50.0,29.78,SE,140,4.0,14.0,61,0.00,,,0.00,weatherlink.com 1.10,2013-03-16 05:17:00,
2013-03-16 00:32:00,64.0,50.0,29.78,ENE,60,4.0,13.0,61,0.00,,,0.00,weatherlink.com 1.10,2013-03-16 05:32:00,
2013-03-16 00:47:00,63.7,50.0,29.78,ESE,108,8.0,12.0,61,0.00,,,0.00,weatherlink.com 1.10,2013-03-16 05:47:00,
2013-03-16 01:02:00,63.6,50.0,29.77,ESE,120,4.0,12.0,61,0.00,,,0.00,weatherlink.com 1.10,2013-03-16 06:02:00,
2013-03-16 01:17:00,63.4,50.0,29.76,ESE,103,6.0,9.0,61,0.00,,,0.00,weatherlink.com 1.10,2013-03-16 06:17:00,
2013-03-16 01:32:00,63.2,49.0,29.76,ESE,107,5.0,11.0,61,0.00,,,0.00,weatherlink.com 1.10,2013-03-16 06:32:00,
2013-03-16 01:47:00,63.2,49.0,29.77,ESE,116,6.0,12.0,60,0.00,,,0.00,weatherlink.com 1.10,2013-03-16 06:47:00,
2013-03-16 02:02:00,63.2,49.0,29.77,ESE,109,4.0,12.0,60,0.00,,,0.00,weatherlink.com 1.10,2013-03-16 07:02:00,
2013-03-16 02:17:00,63.0,49.0,29.77,East,95,4.0,8.0,60,0.00,,,0.00,weatherlink.com 1.10,2013-03-16 07:17:00,
2013-03-16 02:32:00,62.8,49.0,29.77,ESE,117,4.0,9.0,60,0.00,,,0.00,weatherlink.com 1.10,2013-03-16 07:32:00,
2013-03-16 02:47:00,62.8,48.0,29.77,ESE,117,5.0,8.0,59,0.00,,,0.00,weatherlink.com 1.10,2013-03-16 07:47:00,
2013-03-16 03:02:00,62.9,48.0,29.76,SE,138,3.0,10.0,58,0.00,,,0.00,weatherlink.com 1.10,2013-03-16 08:02:00,
2013-03-16 03:17:00,63.1,48.0,29.76,East,89,11.0,13.0,58,0.00,,,0.00,weatherlink.com 1.10,2013-03-16 08:17:00,
2013-03-16 03:32:00,63.3,48.0,29.76,SE,143,9.0,11.0,57,0.00,,,0.00,weatherlink.com 1.10,2013-03-16 08:32:00,
2013-03-16 03:48:00,63.7,48.0,29.75,SE,124,9.0,11.0,56,0.00,,,0.00,weatherlink.com 1.10,2013-03-16 08:48:00,
2013-03-16 04:03:00,63.5,48.0,29.75,ESE,119,6.0,13.0,57,0.00,,,0.00,weatherlink.com 1.10,2013-03-16 09:03:00,
2013-03-16 04:18:00,63.2,48.0,29.75,East,88,8.0,9.0,57,0.00,,,0.00,weatherlink.com 1.10,2013-03-16 09:18:00,
2013-03-16 04:33:00,62.9,47.0,29.75,ESE,104,3.0,11.0,57,0.00,,,0.00,weatherlink.com 1.10,2013-03-16 09:33:00,
2013-03-16 04:48:00,62.4,47.0,29.75,SE,126,6.0,9.0,58,0.00,,,0.00,weatherlink.com 1.10,2013-03-16 09:48:00,
2013-03-16 05:03:00,61.6,47.0,29.75,East,88,6.0,8.0,60,0.00,,,0.00,weatherlink.com 1.10,2013-03-16 10:03:00,
2013-03-16 05:18:00,61.2,47.0,29.75,SE,138,5.0,9.0,60,0.00,,,0.00,weatherlink.com 1.10,2013-03-16 10:18:00,
2013-03-16 05:33:00,61.2,47.0,29.75,East,99,6.0,10.0,60,0.00,,,0.00,weatherlink.com 1.10,2013-03-16 10:33:00,
2013-03-16 05:48:00,61.3,48.0,29.76,East,95,6.0,13.0,61,0.00,,,0.00,weatherlink.com 1.10,2013-03-16 10:48:00,
2013-03-16 06:03:00,61.4,47.0,29.76,ESE,123,5.0,14.0,60,0.00,,,0.00,weatherlink.com 1.10,2013-03-16 11:03:00,
2013-03-16 06:18:00,61.2,47.0,29.76,SE,132,8.0,12.0,61,0.00,,,0.00,weatherlink.com 1.10,2013-03-16 11:18:00,
2013-03-16 06:33:00,61.3,47.0,29.77,East,95,3.0,11.0,60,0.00,,,0.00,weatherlink.com 1.10,2013-03-16 11:33:00,
2013-03-16 06:48:00,60.5,47.0,29.77,ESE,106,3.0,10.0,62,0.00,,,0.00,weatherlink.com 1.10,2013-03-16 11:48:00,
2013-03-16 07:03:00,59.8,47.0,29.77,SE,128,2.0,10.0,63,0.00,,,0.00,weatherlink.com 1.10,2013-03-16 12:03:00,
2013-03-16 07:18:00,59.3,47.0,29.77,ESE,123,1.0,9.0,64,0.00,,,0.00,weatherlink.com 1.10,2013-03-16 12:18:00,
2013-03-16 07:33:00,59.0,47.0,29.78,ESE,107,6.0,8.0,65,0.00,,,0.00,weatherlink.com 1.10,2013-03-16 12:33:00,
2013-03-16 07:48:00,59.2,47.0,29.78,SE,129,5.0,14.0,65,0.00,,,0.00,weatherlink.com 1.10,2013-03-16 12:48:00,
2013-03-16 08:03:00,60.3,48.0,29.79,SE,134,8.0,10.0,65,0.00,,,0.00,weatherlink.com 1.10,2013-03-16 13:03:00,
2013-03-16 08:18:00,61.3,49.0,29.79,ENE,61,5.0,11.0,64,0.00,,,0.00,weatherlink.com 1.10,2013-03-16 13:18:00,
2013-03-16 08:33:00,62.2,49.0,29.80,ESE,111,5.0,17.0,63,0.00,,,0.00,weatherlink.com 1.10,2013-03-16 13:33:00,
2013-03-16 08:48:00,62.6,50.0,29.80,SE,136,11.0,16.0,63,0.00,,,0.00,weatherlink.com 1.10,2013-03-16 13:48:00,
2013-03-16 09:03:00,63.2,50.0,29.80,ESE,115,6.0,16.0,63,0.00,,,0.00,weatherlink.com 1.10,2013-03-16 14:03:00,
2013-03-16 09:18:00,63.9,51.0,29.80,SE,132,3.0,22.0,63,0.00,,,0.00,weatherlink.com 1.10,2013-03-16 14:18:00,
2013-03-16 09:34:00,64.0,51.0,29.80,SE,133,7.0,21.0,62,0.00,,,0.00,weatherlink.com 1.10,2013-03-16 14:34:00,
2013-03-16 09:48:00,63.9,51.0,29.80,ESE,119,8.0,18.0,63,0.00,,,0.00,weatherlink.com 1.10,2013-03-16 14:48:00,
2013-03-16 10:03:00,64.0,51.0,29.80,ESE,121,7.0,19.0,64,0.00,,,0.00,weatherlink.com 1.10,2013-03-16 15:03:00,
2013-03-16 10:18:00,64.7,52.0,29.81,ESE,115,9.0,18.0,63,0.00,,,0.00,weatherlink.com 1.10,2013-03-16 15:18:00,
2013-03-16 10:33:00,65.4,52.0,29.81,SE,124,9.0,14.0,63,0.00,,,0.00,weatherlink.com 1.10,2013-03-16 15:33:00,
2013-03-16 10:48:00,67.2,53.0,29.82,ESE,121,11.0,18.0,60,0.00,,,0.00,weatherlink.com 1.10,2013-03-16 15:48:00,
2013-03-16 11:03:00,67.5,52.0,29.82,SE,140,12.0,21.0,59,0.00,,,0.00,weatherlink.com 1.10,2013-03-16 16:03:00,
2013-03-16 11:18:00,68.3,53.0,29.82,SE,124,15.0,18.0,59,0.00,,,0.00,weatherlink.com 1.10,2013-03-16 16:18:00,
2013-03-16 11:33:00,67.6,52.0,29.82,SE,133,7.0,15.0,58,0.00,,,0.00,weatherlink.com 1.10,2013-03-16 16:33:00,
2013-03-16 11:48:00,68.6,54.0,29.83,SE,132,9.0,19.0,59,0.00,,,0.00,weatherlink.com 1.10,2013-03-16 16:48:00,
2013-03-16 12:04:00,68.9,52.0,29.84,SSE,162,14.0,21.0,56,0.00,,,0.00,weatherlink.com 1.10,2013-03-16 17:04:00,
2013-03-16 12:19:00,69.5,54.0,29.84,SE,126,5.0,13.0,58,0.00,,,0.00,weatherlink.com 1.10,2013-03-16 17:19:00,
2013-03-16 12:34:00,70.6,54.0,29.84,ENE,77,6.0,16.0,56,0.00,,,0.00,weatherlink.com 1.10,2013-03-16 17:34:00,
2013-03-16 12:49:00,71.0,54.0,29.84,SSE,158,13.0,13.0,56,0.00,,,0.00,weatherlink.com 1.10,2013-03-16 17:49:00,
2013-03-16 13:04:00,71.0,53.0,29.84,South,185,5.0,13.0,53,0.00,,,0.00,weatherlink.com 1.10,2013-03-16 18:04:00,
2013-03-16 13:19:00,71.9,54.0,29.83,SSE,155,9.0,9.0,53,0.00,,,0.00,weatherlink.com 1.10,2013-03-16 18:19:00,
2013-03-16 13:34:00,72.0,53.0,29.84,SE,146,9.0,11.0,52,0.00,,,0.00,weatherlink.com 1.10,2013-03-16 18:34:00,
2013-03-16 13:49:00,72.2,54.0,29.83,SW,221,5.0,9.0,53,0.00,,,0.00,weatherlink.com 1.10,2013-03-16 18:49:00,
2013-03-16 14:04:00,72.5,53.0,29.83,South,175,2.0,8.0,50,0.00,,,0.00,weatherlink.com 1.10,2013-03-16 19:04:00,
2013-03-16 14:19:00,72.6,54.0,29.83,South,186,3.0,8.0,52,0.00,,,0.00,weatherlink.com 1.10,2013-03-16 19:19:00,
2013-03-16 14:34:00,72.9,54.0,29.82,SSE,164,2.0,9.0,51,0.00,,,0.00,weatherlink.com 1.10,2013-03-16 19:34:00,
2013-03-16 14:49:00,71.6,52.0,29.82,SSW,194,7.0,13.0,51,0.00,,,0.00,weatherlink.com 1.10,2013-03-16 19:49:00,
2013-03-16 15:04:00,69.5,51.0,29.82,SSW,196,8.0,10.0,53,0.00,,,0.00,weatherlink.com 1.10,2013-03-16 20:04:00,
2013-03-16 15:19:00,69.1,51.0,29.83,SSW,200,8.0,14.0,53,0.00,,,0.00,weatherlink.com 1.10,2013-03-16 20:19:00,
2013-03-16 15:34:00,68.1,50.0,29.85,South,188,7.0,12.0,53,0.00,,,0.00,weatherlink.com 1.10,2013-03-16 20:34:00,
2013-03-16 15:49:00,66.9,50.0,29.85,South,188,5.0,17.0,55,0.00,,,0.00,weatherlink.com 1.10,2013-03-16 20:49:00,
2013-03-16 16:04:00,64.9,48.0,29.86,SSW,208,6.0,13.0,55,0.00,,,0.00,weatherlink.com 1.10,2013-03-16 21:04:00,
2013-03-16 16:19:00,63.5,48.0,29.86,SSW,200,5.0,14.0,57,0.00,,,0.00,weatherlink.com 1.10,2013-03-16 21:19:00,
2013-03-16 16:34:00,62.1,47.0,29.87,South,186,9.0,13.0,58,0.00,,,0.00,weatherlink.com 1.10,2013-03-16 21:34:00,
2013-03-16 16:49:00,60.6,46.0,29.87,WNW,296,3.0,13.0,59,0.00,,,0.00,weatherlink.com 1.10,2013-03-16 21:49:00,
2013-03-16 17:04:00,58.8,45.0,29.87,WSW,255,1.0,12.0,60,0.00,,,0.00,weatherlink.com 1.10,2013-03-16 22:04:00,
2013-03-16 17:19:00,57.6,45.0,29.86,SW,224,4.0,14.0,63,0.00,,,0.00,weatherlink.com 1.10,2013-03-16 22:19:00,
2013-03-16 17:34:00,57.1,44.0,29.86,SW,225,4.0,10.0,63,0.00,,,0.00,weatherlink.com 1.10,2013-03-16 22:34:00,
2013-03-16 17:49:00,56.5,44.0,29.87,SSW,203,5.0,9.0,64,0.00,,,0.00,weatherlink.com 1.10,2013-03-16 22:49:00,
2013-03-16 18:04:00,55.6,44.0,29.89,SW,218,1.0,9.0,66,0.00,,,0.00,weatherlink.com 1.10,2013-03-16 23:04:00,
2013-03-16 18:19:00,55.0,44.0,29.90,SW,230,3.0,9.0,67,0.00,,,0.00,weatherlink.com 1.10,2013-03-16 23:19:00,
2013-03-16 18:34:00,53.9,43.0,29.92,SSW,196,4.0,11.0,67,0.00,,,0.00,weatherlink.com 1.10,2013-03-16 23:34:00,
2013-03-16 18:50:00,52.9,42.0,29.92,West,263,5.0,11.0,67,0.00,,,0.00,weatherlink.com 1.10,2013-03-16 23:50:00,
2013-03-16 19:05:00,52.0,41.0,29.91,SW,234,4.0,11.0,67,0.00,,,0.00,weatherlink.com 1.10,2013-03-17 00:05:00,
2013-03-16 19:20:00,51.0,41.0,29.91,WNW,285,4.0,11.0,68,0.00,,,0.00,weatherlink.com 1.10,2013-03-17 00:20:00,
2013-03-16 19:35:00,50.7,41.0,29.91,NW,315,2.0,9.0,69,0.00,,,0.00,weatherlink.com 1.10,2013-03-17 00:35:00,
2013-03-16 19:50:00,50.5,41.0,29.91,NNW,344,6.0,11.0,70,0.00,,,0.00,weatherlink.com 1.10,2013-03-17 00:50:00,
2013-03-16 20:05:00,50.1,41.0,29.92,NW,304,6.0,9.0,71,0.00,,,0.00,weatherlink.com 1.10,2013-03-17 01:05:00,
2013-03-16 20:20:00,49.7,41.0,29.93,WNW,294,3.0,9.0,71,0.00,,,0.00,weatherlink.com 1.10,2013-03-17 01:20:00,
2013-03-16 20:35:00,49.2,41.0,29.94,SW,216,2.0,8.0,72,0.00,,,0.00,weatherlink.com 1.10,2013-03-17 01:35:00,
2013-03-16 20:50:00,48.9,41.0,29.94,NNW,331,0.0,7.0,73,0.00,,,0.00,weatherlink.com 1.10,2013-03-17 01:50:00,
2013-03-16 21:05:00,48.6,41.0,29.94,WNW,287,1.0,8.0,74,0.00,,,0.00,weatherlink.com 1.10,2013-03-17 02:05:00,
2013-03-16 21:20:00,48.1,41.0,29.96,West,279,0.0,6.0,75,0.00,,,0.00,weatherlink.com 1.10,2013-03-17 02:20:00,
2013-03-16 21:35:00,47.9,40.0,29.95,WNW,285,1.0,7.0,75,0.00,,,0.00,weatherlink.com 1.10,2013-03-17 02:35:00,
2013-03-16 21:50:00,47.7,40.0,29.96,West,275,7.0,12.0,76,0.00,,,0.00,weatherlink.com 1.10,2013-03-17 02:50:00,
2013-03-16 22:05:00,47.4,40.0,29.96,WNW,298,5.0,10.0,75,0.00,,,0.00,weatherlink.com 1.10,2013-03-17 03:05:00,
2013-03-16 22:20:00,47.1,40.0,29.96,WSW,253,0.0,7.0,76,0.00,,,0.00,weatherlink.com 1.10,2013-03-17 03:20:00,
2013-03-16 22:35:00,46.8,40.0,29.96,SW,221,2.0,8.0,77,0.00,,,0.00,weatherlink.com 1.10,2013-03-17 03:35:00,
2013-03-16 22:50:00,46.4,40.0,29.96,West,280,5.0,9.0,78,0.00,,,0.00,weatherlink.com 1.10,2013-03-17 03:50:00,
2013-03-16 23:05:00,45.9,40.0,29.95,WNW,292,2.0,9.0,79,0.00,,,0.00,weatherlink.com 1.10,2013-03-17 04:05:00,
2013-03-16 23:20:00,45.4,39.0,29.94,WNW,286,0.0,8.0,79,0.00,,,0.00,weatherlink.com 1.10,2013-03-17 04:20:00,
2013-03-16 23:35:00,44.9,39.0,29.95,WNW,298,0.0,12.0,79,0.00,,,0.00,weatherlink.com 1.10,2013-03-17 04:35:00,
2013-03-16 23:50:00,44.6,38.0,29.95,NW,309,2.0,8.0,79,0.00,,,0.00,weatherlink.com 1.10,2013-03-17 04:50:00,